Regional Weather Roundup
Issued by NWS

Home | Current Version | Previous Version | Graphics & Text | Print | Product List | Glossary On
Versions: 1 2 3 4 5 6 7 8 9 10 11 12 13 14 15 16 17 18 19 20 21 22 23 24 25 26 27 28 29 30 31 32 33 34 35 36 37 38 39 40 41 42 43 44 45 46 47 48 49 50
338
ASUS43 KBIS 111331
RWRND
NORTH DAKOTA REGIONAL WEATHER ROUNDUP
NATIONAL WEATHER SERVICE EASTERN NORTH DAKOTA/GRAND FORKS ND
700 AM CST THU FEB 11 2016

  NOTE: "FAIR" INDICATES FEW OR NO CLOUDS BELOW 12,000 FEET WITH NO
  SIGNIFICANT WEATHER AND/OR OBSTRUCTIONS TO VISIBILITY.

NDZ001>003-009>011-017-111400-
...NORTHWEST NORTH DAKOTA...

CITY           SKY/WX    TMP DP  RH WIND       PRES   REMARKS
WILLISTON      LGT SNOW  23  20  88 NE6       30.07S FOG     WCI  16
MINOT          CLOUDY    14   7  73 E3        30.13S
MINOT AFB      CLOUDY    11  10  92 SE5       30.13S WCI   3
$$

NDZ018>021-031>035-040>046-111400-
...SOUTHWEST NORTH DAKOTA...

CITY           SKY/WX    TMP DP  RH WIND       PRES   REMARKS
BISMARCK       LGT SNOW  19  14  81 SE6       30.13F WCI  11
DICKINSON      LGT SNOW  24  22  91 E8        29.98F VSB 3/4 WCI  15
GARRISON         N/A     15  12  88 SE5       30.10S WCI   8
HETTINGER      LGT SNOW  29  27  92 S7        30.00R FOG     WCI  22
$$

NDZ004>008-012>016-024-026-027-054-111400-
...NORTHEAST NORTH DAKOTA...

CITY           SKY/WX    TMP DP  RH WIND       PRES   REMARKS
GRAND FORKS    CLOUDY     6  -1  73 SE6       30.26F WCI  -4
GRAND FORKS AF CLOUDY     5   0  78 SE6       30.25F WCI  -6
DEVILS LAKE    FLURRIES   7   3  84 CALM      30.19S
$$

NDZ022-023-025-028>030-036>039-047>053-111400-
...SOUTHEAST NORTH DAKOTA...

CITY           SKY/WX    TMP DP  RH WIND       PRES   REMARKS
JAMESTOWN      CLOUDY     7   2  80 SE8       30.17S WCI  -6
FARGO          CLOUDY     7  -1  70 E3        30.27F
WAHPETON       CLOUDY     3   0  85 CALM      30.28S
$$




USA.gov is the U.S. government's official web portal to all federal, state and local government web resources and services.